Weather History for Winston-Salem, NC

Change the Weather History Date:

Tuesday, April 9, 2013

  Actual Average Record
Temperature  
Mean Temperature 70 °F -  
Max Temperature 84 °F 66 °F 87 °F (2001)
Min Temperature 59 °F 46 °F 20 °F (1972)
Cooling Degree Days 6    
Growing Degree Days 20 (Base 50)    
Moisture  
Dew Point 51 °F    
Average Humidity 50    
Maximum Humidity 75    
Minimum Humidity 31    
Precipitation  
Precipitation 0.00 in - - ()
Sea Level Pressure  
Sea Level Pressure 30.11 in    
Wind  
Wind Speed 5 mph (SW)    
Max Wind Speed 12 mph    
Max Gust Speed 20 mph    
Visibility 10 miles    
Events      
Averages and records for this station are not official NWS values.
T = Trace of Precipitation, MM = Missing Value Source: NWS Daily Summary

Daily Weather History Graph

Daily Weather History Graph

Search for Another Location

Airport:

Trip Planner

Search our weather history database for the weather conditions in past years. The results will help you decide how hot, cold, wet, or windy it might be!

Date:

Astronomy

Apr. 09, 2013 Rise Set
Actual Time 6:55 AM EDT 7:49 PM EDT
Civil Twilight 6:29 AM EDT 8:16 PM EDT
Nautical Twilight 5:58 AM EDT 8:47 PM EDT
Astronomical Twilight 5:26 AM EDT 9:19 PM EDT
Moon 6:16 AM EDT (4/9) 7:23 PM EDT (4/9)
Length of Visible Light 13h 46m
Length of Day
12h 54m
Waning Crescent, 1% of the Moon is Illuminated
Apr 9
Waning Crescent
Apr 10
New
Apr 18
First Quarter
Apr 25
Full
May 2
Last Quarter

Hourly Weather History & Observations

Time (EDT) Temp. Dew Point Humidity Pressure Visibility Wind Dir Wind Speed Gust Speed Precip Events Conditions
12:54 AM 66.9 °F 48.0 °F 51% 30.08 in 10.0 mi SW 5.8 mph - N/A   Clear
1:54 AM 64.9 °F 48.0 °F 54% 30.10 in 10.0 mi SW 4.6 mph - N/A   Clear
2:54 AM 63.0 °F 48.9 °F 60% 30.09 in 10.0 mi South 3.5 mph - N/A   Clear
3:54 AM 61.0 °F 48.9 °F 64% 30.10 in 10.0 mi Calm Calm - N/A   Clear
4:54 AM 61.0 °F 51.1 °F 70% 30.11 in 10.0 mi SW 5.8 mph - N/A   Clear
5:54 AM 60.1 °F 51.1 °F 72% 30.13 in 10.0 mi SW 3.5 mph - N/A   Clear
6:54 AM 59.0 °F 51.1 °F 75% 30.15 in 10.0 mi Calm Calm - N/A   Clear
7:54 AM 60.1 °F 52.0 °F 75% 30.17 in 10.0 mi SSW 3.5 mph - N/A   Clear
8:54 AM 64.0 °F 53.1 °F 67% 30.18 in 10.0 mi WSW 5.8 mph - N/A   Clear
9:54 AM 68.0 °F 53.1 °F 59% 30.18 in 10.0 mi South 4.6 mph - N/A   Clear
10:54 AM 71.1 °F 53.1 °F 53% 30.19 in 10.0 mi WSW 5.8 mph - N/A   Clear
11:54 AM 75.0 °F 52.0 °F 44% 30.17 in 10.0 mi Variable 4.6 mph - N/A   Clear
12:54 PM 79.0 °F 51.1 °F 38% 30.15 in 10.0 mi Variable 4.6 mph - N/A   Clear
1:54 PM 80.1 °F 48.9 °F 34% 30.13 in 10.0 mi Calm Calm - N/A   Clear
2:54 PM 81.0 °F 48.9 °F 33% 30.11 in 10.0 mi SSW 11.5 mph 17.3 mph N/A   Clear
3:54 PM 82.0 °F 50.0 °F 33% 30.08 in 10.0 mi South 8.1 mph 18.4 mph N/A   Clear
4:54 PM 82.9 °F 48.9 °F 31% 30.07 in 10.0 mi SW 10.4 mph 19.6 mph N/A   Clear
5:54 PM 82.0 °F 51.1 °F 34% 30.07 in 10.0 mi West 8.1 mph 16.1 mph N/A   Clear
6:54 PM 81.0 °F 51.1 °F 35% 30.06 in 10.0 mi SW 8.1 mph - N/A   Clear
7:54 PM 79.0 °F 52.0 °F 39% 30.07 in 10.0 mi SSW 5.8 mph 18.4 mph N/A   Clear
8:54 PM 77.0 °F 53.1 °F 43% 30.08 in 10.0 mi SSW 5.8 mph - N/A   Clear
9:54 PM 75.0 °F 53.1 °F 46% 30.09 in 10.0 mi Variable 3.5 mph - N/A   Clear
10:54 PM 73.9 °F 53.1 °F 48% 30.08 in 10.0 mi SW 5.8 mph - N/A   Clear
11:54 PM 72.0 °F 53.1 °F 51% 30.06 in 10.0 mi Variable 4.6 mph - N/A   Clear